Date,TemperatureHighF,TemperatureAvgF,TemperatureLowF,DewpointHighF,DewpointAvgF,DewpointLowF,HumidityHigh,HumidityAvg,HumidityLow,PressureMaxIn,PressureMinIn,WindSpeedMaxMPH,WindSpeedAvgMPH,GustSpeedMaxMPH,PrecipitationSumIn
2013-1-1,35.1,25.2,9.5,26.6,20.3,6.8,96,82,58,30.17,30.05,6,2,14,0.01
2013-1-2,60.6,11.7,-0.2,56.4,5.2,-36.5,89,75,54,30.25,30.15,4,2,47,0.00
2013-1-3,30.6,22.4,11.3,25.4,16.2,4.3,85,77,67,30.26,30.14,8,3,23,0.00
2013-1-4,29.5,19.3,9.7,22.2,14.6,6.4,90,82,69,30.29,30.20,9,4,17,0.00
2013-1-5,48.4,26.3,15.3,29.8,22.2,13.2,94,85,70,30.29,30.05,8,3,17,0.00
2013-1-6,35.2,30.4,24.4,31.5,25.6,19.1,91,82,79,30.33,29.95,10,5,21,0.00
2013-1-7,36.9,25.4,14.2,26.6,20.6,12.3,94,82,64,30.40,30.17,8,3,23,0.00
2013-1-8,43.3,31.1,22.1,30.4,24.9,19.1,91,78,60,30.25,30.12,5,2,11,0.00
2013-1-9,47.5,38.3,26.1,36.0,30.2,21.2,84,73,56,30.49,30.09,9,3,14,0.00
2013-1-10,42.4,33.7,23.4,38.1,28.0,20.3,97,80,64,30.52,30.02,7,3,20,0.38
2013-1-11,56.5,49.3,38.7,52.6,47.0,37.9,100,92,79,30.03,28.33,8,4,17,0.37
2013-1-12,62.6,51.7,40.5,52.0,47.4,38.6,97,86,66,29.95,29.79,8,3,22,0.46
2013-1-13,87.8,33.0,17.8,71.0,31.0,13.5,100,93,54,30.18,29.77,10,3,23,3.84
2013-1-14,21.9,17.1,12.4,16.8,12.8,-20.6,91,83,20,30.44,30.18,0,0,0,0.00
2013-1-15,31.3,20.8,11.1,22.0,16.3,9.1,92,83,63,30.40,30.11,0,0,0,0.00
2013-1-16,38.3,28.0,17.6,27.8,21.9,16.2,95,79,50,30.11,29.88,8,2,20,0.02
2013-1-17,36.7,29.4,18.7,27.5,20.7,12.4,92,71,47,30.38,30.02,11,4,24,0.00
2013-1-18,39.4,28.0,15.1,26.6,19.3,10.9,88,70,53,30.43,30.02,11,5,24,0.00
2013-1-19,50.7,41.8,36.0,35.6,31.5,26.2,78,67,53,30.03,29.77,15,9,38,0.00
2013-1-20,41.4,23.1,17.6,30.9,9.4,5.4,66,55,45,30.24,29.81,17,6,42,0.00
2013-1-21,17.6,12.5,5.2,6.9,0.1,-6.3,72,57,39,30.22,30.08,12,7,30,0.00
2013-1-22,15.1,6.6,0.9,-1.9,-5.3,-7.8,72,58,41,30.34,30.21,8,4,21,0.00
2013-1-23,19.9,14.5,6.3,14.0,4.5,-1.9,86,64,50,30.32,30.08,12,4,30,0.00
2013-1-24,24.4,15.5,1.4,14.4,5.3,-2.2,89,66,39,30.58,30.15,9,2,23,0.00
2013-1-25,25.9,21.5,17.4,21.0,15.2,6.5,89,76,61,30.39,29.98,7,2,14,0.00
2013-1-26,32.4,24.5,19.8,22.3,16.8,13.2,82,72,58,30.40,30.06,9,3,20,0.01
2013-1-27,34.5,27.4,19.9,33.3,21.6,14.5,96,79,66,30.40,29.99,6,2,16,0.01
2013-1-28,49.3,44.1,-4.7,49.0,43.8,-29.5,100,99,96,30.02,29.88,10,4,17,0.08
2013-1-29,59.2,55.4,43.9,57.8,54.3,43.6,100,96,88,29.92,29.31,9,5,20,0.54
2013-1-30,65.8,44.4,26.2,65.6,42.5,21.7,100,93,79,29.52,29.19,16,4,36,0.58
2013-1-31,26.1,17.5,7.7,21.6,11.4,0.7,88,77,63,30.06,29.53,14,8,33,0.01
2013-2-1,16.2,9.7,2.1,8.8,2.5,-3.9,79,72,61,30.34,30.06,9,6,22,0.00
2013-2-2,25.9,20.2,15.1,21.7,17.2,8.7,94,88,75,30.20,29.94,7,4,14,0.00
2013-2-3,22.3,15.2,8.8,15.7,10.2,3.4,88,80,71,30.04,29.92,8,3,20,0.00
2013-2-4,33.6,24.1,15.4,24.4,19.9,12.6,93,84,68,30.04,29.79,5,1,11,0.02
2013-2-5,32.9,25.8,14.0,29.8,22.3,10.4,95,87,68,30.00,29.77,9,3,18,0.00
2013-2-6,41.5,32.1,24.6,26.3,23.8,21.1,87,72,51,30.24,30.00,5,2,12,0.01
2013-2-7,50.5,37.2,29.8,36.8,31.0,-4.8,100,79,55,30.18,29.77,6,2,17,0.08
2013-2-8,37.0,33.0,27.3,36.8,26.7,20.1,100,78,61,30.34,29.78,12,7,30,0.00
2013-2-9,41.0,29.1,19.0,26.8,22.7,17.8,97,78,53,30.38,30.14,4,1,12,0.00
2013-2-10,49.5,39.9,31.6,47.8,34.4,23.2,100,81,68,30.14,29.59,7,3,17,0.12
2013-2-11,49.6,36.5,30.6,47.1,29.2,21.5,94,75,67,29.99,29.58,14,9,32,0.01
2013-2-12,36.0,30.0,27.0,25.6,23.0,20.3,81,75,65,30.09,29.93,10,4,23,0.00
2013-2-13,47.3,33.2,18.5,32.4,26.3,17.5,96,77,52,29.93,29.72,6,2,13,0.00
2013-2-14,42.3,36.4,30.0,35.7,30.3,22.1,96,79,59,29.94,29.71,13,5,28,0.00
2013-2-15,34.0,28.4,19.8,26.3,20.8,13.4,88,74,47,30.14,29.93,11,3,20,0.00
2013-2-16,23.2,19.2,12.6,19.5,11.2,2.6,87,71,47,30.13,30.06,12,4,24,0.00
2013-2-17,33.3,20.6,8.8,14.6,9.1,-34.5,86,62,36,30.20,30.10,5,2,14,0.00
2013-2-18,55.4,39.4,24.3,43.9,29.3,13.2,92,67,52,30.11,29.48,11,5,27,0.11
2013-2-19,48.9,21.0,14.4,43.4,16.0,-35.2,96,81,67,30.08,29.46,65,10,65,0.05
2013-2-20,45.1,16.7,9.0,16.7,9.1,-32.1,83,72,10,30.31,30.09,11,5,21,0.00
2013-2-21,27.7,24.4,21.0,20.4,18.2,-22.7,89,77,68,30.34,30.00,10,4,26,0.00
2013-2-22,38.7,28.6,21.9,33.6,26.9,-17.2,100,94,78,30.02,29.83,12,4,49,0.05
2013-2-23,31.5,27.0,25.2,23.5,21.0,18.8,86,78,64,29.95,29.89,7,4,15,0.00
2013-2-24,40.8,28.0,15.3,25.1,20.7,13.4,93,76,50,30.13,29.94,6,2,14,0.00
2013-2-25,46.9,32.8,21.2,28.6,25.1,-4.3,97,75,49,30.17,29.95,7,2,55,0.00
2013-2-26,34.9,33.3,32.2,34.7,29.6,-2.8,100,87,67,29.95,29.43,10,4,24,0.64
2013-2-27,36.7,32.4,30.9,36.4,32.2,25.8,100,99,96,29.62,29.44,6,2,17,0.21
2013-2-28,40.5,34.4,30.9,34.0,31.1,28.1,100,88,72,29.97,29.60,9,4,20,0.06
2013-3-1,35.2,31.0,26.1,30.2,25.7,19.3,100,81,64,30.10,29.95,6,3,16,0.01
2013-3-2,35.6,28.5,25.3,21.1,18.6,15.8,77,66,51,30.10,30.05,10,5,23,0.00
2013-3-3,36.3,27.3,19.0,22.8,18.5,10.6,90,71,39,30.09,30.02,8,3,17,0.00
2013-3-4,41.5,27.7,15.3,29.9,19.5,-30.7,100,74,46,30.12,29.99,6,2,13,0.00
2013-3-5,79.9,30.4,26.8,30.4,28.3,-17.2,100,92,65,30.01,29.69,11,5,62,0.22
2013-3-6,37.0,31.1,26.1,30.7,27.6,24.2,100,87,69,30.24,29.81,11,5,24,0.02
2013-3-7,40.8,32.9,22.8,30.4,26.7,19.9,95,79,57,30.39,30.23,6,3,13,0.01
2013-3-8,46.6,30.3,14.9,26.3,21.1,9.4,94,71,42,30.47,30.35,4,1,10,0.00
2013-3-9,43.9,33.3,21.0,34.2,25.3,-26.9,78,72,10,30.35,29.91,5,1,12,0.00
2013-3-10,65.3,53.0,42.4,46.4,39.7,33.8,77,61,48,29.91,29.68,6,2,15,0.02
2013-3-11,55.2,44.1,33.6,51.4,41.7,29.9,100,91,57,29.77,29.56,10,5,27,0.06
2013-3-12,37.8,32.5,29.1,31.8,27.2,22.8,100,81,59,29.96,29.78,10,6,27,0.00
2013-3-13,34.2,28.4,25.0,27.6,18.4,10.9,91,67,39,30.25,29.95,14,8,28,0.00
2013-3-14,44.4,34.7,19.6,30.2,22.6,14.5,93,64,37,30.30,30.10,6,3,14,0.00
2013-3-15,50.9,37.6,27.7,42.3,34.4,27.0,100,89,59,30.11,29.74,6,2,11,0.12
2013-3-16,42.1,36.5,27.0,40.7,34.2,23.3,100,92,78,30.07,29.58,9,4,21,0.01
2013-3-17,38.5,31.5,28.8,24.5,22.9,-18.5,80,71,11,30.17,30.01,10,4,57,0.00
2013-3-18,36.0,31.8,28.2,35.6,28.8,-20.7,100,90,10,30.02,29.56,11,5,27,0.01
2013-3-19,39.0,28.3,20.3,21.5,15.3,10.0,75,59,35,30.04,29.76,15,9,33,0.01
2013-3-20,51.8,25.3,19.2,16.5,11.0,-23.8,77,55,33,30.05,29.96,10,6,24,0.00
2013-3-21,36.9,24.5,14.0,24.0,11.9,7.5,90,61,32,30.00,29.94,9,4,21,0.00
2013-3-22,46.6,29.5,14.5,22.8,16.1,12.3,93,62,29,30.03,29.95,7,2,17,0.00
2013-3-23,44.4,32.9,24.1,25.7,22.0,17.8,86,65,45,30.09,29.95,7,3,17,0.00
2013-3-24,36.1,31.2,28.0,30.9,25.3,-15.9,100,79,59,29.96,29.54,16,5,62,0.00
2013-3-25,38.1,30.5,-19.5,32.3,28.0,-19.5,100,91,64,29.82,29.56,29,6,105,0.04
2013-3-26,41.4,34.7,0.0,30.8,28.0,-2.7,94,71,20,30.21,29.82,10,4,21,0.00
2013-3-27,44.8,34.3,0.0,30.3,24.9,20.3,91,69,44,30.28,29.47,8,2,18,0.00
2013-3-28,54.7,37.1,21.7,32.5,25.2,20.7,100,67,30,30.32,30.24,6,2,15,0.00
2013-3-29,57.7,41.1,27.7,36.8,25.7,19.9,100,61,25,30.30,30.18,8,2,17,0.00
2013-3-30,58.8,42.9,24.8,36.3,30.3,22.6,94,65,39,30.22,29.90,6,2,15,0.00
2013-3-31,63.9,49.4,39.0,46.1,37.6,27.3,100,68,33,29.90,29.67,13,4,29,0.01
2013-4-1,43.2,35.6,25.2,30.4,20.5,13.4,79,56,34,30.14,29.81,11,5,24,0.00
2013-4-2,47.5,32.5,19.4,22.8,13.7,3.7,84,51,17,30.26,30.12,9,3,23,0.00
2013-4-3,52.3,34.5,18.3,27.2,15.6,5.8,93,52,16,30.41,30.26,7,2,17,0.00
2013-4-4,61.0,41.6,24.4,28.5,21.0,13.9,85,50,16,30.31,29.95,5,2,14,0.00
2013-4-5,57.9,43.7,32.5,32.3,25.8,14.1,76,53,19,30.17,29.94,9,4,18,0.00
2013-4-6,69.6,51.0,32.2,41.3,30.8,24.2,74,49,28,30.14,29.71,10,4,27,0.00
2013-4-7,70.2,57.1,47.7,48.1,42.1,35.9,88,60,31,29.94,29.67,12,5,32,0.05
2013-4-8,77.2,57.5,46.4,59.1,47.0,36.0,100,70,40,29.95,29.72,16,5,30,0.17
2013-4-9,80.4,63.3,51.4,60.8,52.6,44.3,83,69,47,29.98,29.81,15,4,24,0.00
2013-4-10,67.5,55.2,46.0,62.8,52.4,45.3,100,91,74,29.87,29.75,9,3,21,0.38
2013-4-11,50.5,46.2,42.6,49.2,45.9,42.2,99,99,99,29.89,29.56,10,4,30,0.73
2013-4-12,47.5,40.4,37.4,46.0,36.5,31.8,99,86,75,29.86,29.57,10,5,20,0.07
2013-4-13,46.6,39.4,34.0,36.5,33.0,28.0,95,79,55,29.98,29.85,10,4,26,0.02
2013-4-14,70.3,51.6,37.8,50.6,41.8,34.5,90,71,48,30.01,29.76,9,3,20,0.00